Location: Lake Crest
(37.6062°N, 88.9176°W)
Time: 09:04:40
(UTC+00:00)

GRACE-FO 1 - Pass Details

Date: 15 December 2019
Orbit: 480 x 508 km, 89.0° (Epoch: 25 January)

Event Time Altitude Azimuth Distance (km) Brightness Sun altitude
Rises 11:11:42 0° 180° (S) 2,580 8.4 -21.4°
Reaches altitude 10° 11:13:47 10° 181° (S) 1,705 7.5 -21.0°
Maximum altitude 11:17:29 81° 268° (W) 516 4.5 -20.2°
Enters shadow 11:19:03 34° 353° (N) 860 5.6 -19.9°
